[TLELIST] Archives

 

Current TLEs

August 19th 2007 PDT

HST 1 20580U 90037B 07231.13963402 .00000339 00000-0 13443-4 0 9416 2 20580 028.4673 139.6085 0003605 049.8065 310.2840 15.00269936749420 ISS (ZARYA) 1 25544U 98067A 07231.34738624 -.00017018 00000-0 -10283-3 0 8119 2 25544 051.6329 137.8213 0008073 260.9650 203.1201 15.76039501500741 CXO 1 25867U 99040B 07231.08333333 .00000177 00000-0 00000+0 0 1018 2 25867 062.2020 087.9113 6320105 283.0390 353.2869 00.37804514 2496 ____________________________________________________________________ These 2-Line ...Continue Reading

Current TLEs

August 18th 2007 PDT

HST 1 20580U 90037B 07229.87567862 .00000284 00000-0 91865-5 0 9407 2 20580 028.4677 147.8542 0003353 034.4765 325.6048 15.00269257749235 ISS (ZARYA) 1 25544U 98067A 07230.14974214 .00008661 00000-0 58202-4 0 8063 2 25544 051.6348 143.9897 0008083 257.3095 246.8001 15.76135290500555 CXO 1 25867U 99040B 07231.08333333 .00000177 00000-0 00000+0 0 1018 2 25867 062.2020 087.9113 6320105 283.0390 353.2869 00.37804514 2496 ____________________________________________________________________ These 2-Line ...Continue Reading

Current TLEs

August 17th 2007 PDT

HST 1 20580U 90037B 07227.94648248 +.00000276 +00000-0 +85368-5 0 09414 2 20580 028.4677 160.4348 0003370 012.6051 347.4621 15.00268722748947 ISS (ZARYA) 1 25544U 98067A 07229.38193485 .00011384 00000-0 75212-4 0 8000 2 25544 051.6357 147.9462 0008066 254.0324 210.5466 15.76124306500433 CXO 1 25867U 99040B 07228.41666667 .00000154 00000-0 00000+0 0 1004 2 25867 062.1876 087.9542 6316305 283.1001 350.1941 00.37804887 2486 ____________________________________________________________________ These 2-Line ...Continue Reading

Current TLEs

August 16th 2007 PDT

HST 1 20580U 90037B 07228.21257861 .00000269 00000-0 79869-5 0 9390 2 20580 028.4677 158.6993 0003362 015.8431 344.2262 15.00268743748983 ISS (ZARYA) 1 25544U 98067A 07228.36625197 .00000148 00000-0 50721-5 0 7955 2 25544 051.6340 153.1805 0007770 250.6259 207.0537 15.76087264500278 CXO 1 25867U 99040B 07228.41666667 .00000154 00000-0 00000+0 0 1004 2 25867 062.1876 087.9542 6316305 283.1001 350.1941 00.37804887 2486 ____________________________________________________________________ These 2-Line ...Continue Reading

Current TLEs

August 15th 2007 PDT

HST 1 20580U 90037B 07227.14819393 .00000291 00000-0 96821-5 0 9386 2 20580 028.4676 165.6394 0003355 003.8797 356.1820 15.00268622748820 ISS (ZARYA) 1 25544U 98067A 07227.41641324 -.00026659 00000-0 -16338-3 0 7850 2 25544 051.6319 158.0743 0008380 244.4126 220.3240 15.76068289500120 CXO 1 25867U 99040B 07225.79166667 .00000120 00000-0 00000+0 0 997 2 25867 062.1781 088.0161 6312897 283.1495 352.7776 00.37803636 2473 ____________________________________________________________________ These 2-Line ...Continue Reading

Current TLEs

August 14th 2007 PDT

HST 1 20580U 90037B 07225.88423711 .00000308 00000-0 11053-4 0 9371 2 20580 028.4677 173.8821 0003336 349.6197 010.4328 15.00268422748631 ISS (ZARYA) 1 25544U 98067A 07226.40106601 .00010782 00000-0 70990-4 0 7787 2 25544 051.6337 163.3001 0008277 241.4349 218.1650 15.76275229499968 CXO 1 25867U 99040B 07225.79166667 .00000120 00000-0 00000+0 0 997 2 25867 062.1781 088.0161 6312897 283.1495 352.7776 00.37803636 2473 ____________________________________________________________________ These 2-Line ...Continue Reading

Current TLEs

August 13th 2007 PDT

HST 1 20580U 90037B 07223.95503975 +.00000340 +00000-0 +13496-4 0 09388 2 20580 028.4676 186.4629 0003376 328.6598 031.3799 15.00268044748344 ISS (ZARYA) 1 25544U 98067A 07225.33007067 .00011451 00000-0 75209-4 0 7719 2 25544 051.6337 168.8199 0008209 237.3936 260.6890 15.76253143499797 CXO 1 25867U 99040B 07225.79166667 .00000120 00000-0 00000+0 0 997 2 25867 062.1781 088.0161 6312897 283.1495 352.7776 00.37803636 2473 ____________________________________________________________________ These 2-Line ...Continue Reading

Current TLEs

August 12th 2007 PDT

HST 1 20580U 90037B 07222.95717883 +.00000322 +00000-0 +12089-4 0 09491 2 20580 028.4676 192.9692 0003431 317.2596 042.7729 15.00267566748190 ISS (ZARYA) 1 25544U 98067A 07224.43569564 .00010953 00000-0 72194-4 0 7653 2 25544 051.6329 173.4269 0008194 233.6032 225.9396 15.76229810499651 CXO 1 25867U 99040B 07223.12500000 .00000072 00000-0 00000+0 0 980 2 25867 062.1726 088.0783 6307618 283.2127 349.6952 00.37799251 2467 ____________________________________________________________________ These 2-Line ...Continue Reading

Current TLEs

August 11th 2007 PDT

HST 1 20580U 90037B 07223.22327518 .00000328 00000-0 12590-4 0 9352 2 20580 028.4676 191.2332 0003403 321.2281 038.8068 15.00267693748236 ISS (ZARYA) 1 25544U 98067A 07223.48567328 .00011123 00000-0 73312-4 0 7599 2 25544 051.6335 178.3234 0008267 230.2568 234.8436 15.76207887499500 CXO 1 25867U 99040B 07223.12500000 .00000072 00000-0 00000+0 0 980 2 25867 062.1726 088.0783 6307618 283.2127 349.6952 00.37799251 2467 ____________________________________________________________________ These 2-Line ...Continue Reading

Current TLEs

August 10th 2007 PDT

HST 1 20580U 90037B 07220.29621612 +.00000275 +00000-0 +84220-5 0 09348 2 20580 028.4679 210.3201 0003551 287.0360 072.9842 15.00266549747796 ISS (ZARYA) 1 25544U 98067A 07222.47036076 .00011091 00000-0 73194-4 0 7534 2 25544 051.6326 183.5527 0008270 224.7137 235.3015 15.76184188499346 CXO 1 25867U 99040B 07223.12500000 .00000072 00000-0 00000+0 0 980 2 25867 062.1726 088.0783 6307618 283.2127 349.6952 00.37799251 2467 ____________________________________________________________________ These 2-Line ...Continue Reading
  • This mailing list is a public mailing list - anyone may join or leave, at any time.
  • This mailing list is announce-only.

International Space Station (ISS) / Hubble Space Telescope (HST) / Chandra X-Ray Observatory Orbital Data via EMAIL

Privacy Policy:

Private list